Preview of NWS' New Version of Forecast
This preview is not operational and should not be used for support decisions.

Regional Weather Roundup (RWR)

Issued by National Weather Service (NWS)

                            
000
ASUS46 KSEW 152110
RWRWA 

WASHINGTON REGIONAL WEATHER ROUNDUP
NATIONAL WEATHER SERVICE SEATTLE WA
100 PM PST FRI FEB 15 2019

NOTE:"FAIR" INDICATES FEW OR NO CLOUDS BELOW 12,000 FEET WITH NO 
SIGNIFICANT WEATHER AND/OR OBSTRUCTIONS TO VISIBILITY.

WAZ507-509-555>559-152200-
SEATTLE, TACOMA, EVERETT, AND VICINITY
  
CITY           SKY/WX    TMP DP  RH WIND       PRES   REMARKS
EVERETT        CLOUDY    43  36  76 SE12      29.63S                  
BOEING FIELD   PTSUNNY   44  35  70 S7        29.66R                  
RENTON         CLOUDY    45  37  73 VRB6      29.66S                  
SEATAC AIRPORT PTSUNNY   45  38  76 S14       29.65R                  
JBLM-MCCHORD   PTSUNNY   43  43  99 S7        29.65S                  
PUYALLUP       CLOUDY    45  37  76 S6        29.66R                  
BREMERTON      CLOUDY    38  36  92 SW10      29.65R                  
JBLM-FT LEWIS  PTSUNNY   44  43  97 S14       29.65R                  
TACOMA NARROWS PTSUNNY   43  36  76 S14G22    29.65S                  
$$
 
WAZ001-503-506-510-514-515-152200-
NORTH INTERIOR
  
CITY           SKY/WX    TMP DP  RH WIND       PRES   REMARKS
BELLINGHAM     CLOUDY    43  34  70 S12G18    29.62R                  
FRIDAY HARBOR  CLOUDY    45  38  76 E5        29.62R                  
EASTSOUND      LGT RAIN  41  41 100 CALM      29.61S                  
PORT ANGELES   CLOUDY    40  36  86 W7        29.61R                  
EDIZ HOOK      CLOUDY    42  38  85 CALM      29.61R                  
PORT TOWNSEND  CLOUDY    45  37  76 S9G16     29.61R                  
NAS WHIDBEY    CLOUDY    49  37  63 S15       29.66S                  
ARLINGTON      PTSUNNY   42  35  76 SE10      29.64S                  
BURLINGTON       N/A    N/A N/A N/A MISG        N/A                   
$$
 
WAZ020-022-039-040-504-511-512-152200-
SOUTHWEST INTERIOR
  
CITY           SKY/WX    TMP DP  RH WIND       PRES   REMARKS
SHELTON        CLOUDY    42  37  82 SE3       29.62S                  
OLYMPIA        CLOUDY    40  37  89 S7        29.65S                  
CHEHALIS       CLOUDY    46  39  76 S10G17    29.65F                  
KELSO          CLOUDY    44  38  79 VRB7G16   29.68S                  
VANCOUVER      CLOUDY    45  38  76 E3        29.68S                  
SCAPPOOSE, OR  CLOUDY    48  38  68 S8        29.67F                  
PORTLAND, OR   PTSUNNY   44  38  79 E9        29.68F                  
$$
 
WAZ021-516-517-152200-
WASHINGTON COAST
  
CITY           SKY/WX    TMP DP  RH WIND       PRES   REMARKS
FORKS          CLOUDY    44  30  57 VRB6      29.59R                  
HOQUIAM        CLOUDY    46  41  82 SE13      29.63S                  
ASTORIA, OR    CLOUDY    46  45  96 S5        29.62S                  
$$
 
WAZ019-023-024-040-567>569-152200-
CASCADE MOUNTAINS AND COLUMBIA GORGE
  
CITY           SKY/WX    TMP DP  RH WIND       PRES   REMARKS
STAMPEDE PASS  LGT SNOW  31  27  85 CALM      29.54S FOG              
TROUTDALE, OR  CLOUDY    41  35  79 CALM      29.69F                  
HOOD RIVER, OR LGT RAIN  36  32  87 CALM      29.71F                  
THE DALLES, OR MOSUNNY   34  28  79 CALM      29.74S                  
$$

WAZ026-027-041>044-520-521-152200-
EAST SLOPES
  
CITY           SKY/WX    TMP DP  RH WIND       PRES   REMARKS
OMAK           CLOUDY    29  26  89 CALM      29.66S                  
WENATCHEE      PTSUNNY   31  26  82 E3        29.66S                  
ELLENSBURG     CLOUDY    34  27  75 SE6       29.64R                  
YAKIMA         CLOUDY    33  28  81 E6        29.68R                  
SUNNYSIDE ARPT CLOUDY    31  29  91 S5        29.70                   
YAKIMA TC      CLOUDY    33  27  78 CALM      29.64S                  
$$

WAZ028-034-035-152200-
COLUMBIA BASIN
  
CITY           SKY/WX    TMP DP  RH WIND       PRES   REMARKS
EPHRATA        CLOUDY    33  29  85 S3        29.66S                  
MOSES LAKE     CLOUDY    31  29  92 W5        29.68R FOG              
PASCO          PTSUNNY   35  28  75 N5        29.72S                  
RICHLAND ARPT  PTCLDY    37  31  79 SW5       29.73                   
HERMISTON, OR  CLOUDY    36  30  79 CALM      29.71R                  
$$

WAZ036>038-152200-
NORTHEAST WASHINGTON
  
CITY           SKY/WX    TMP DP  RH WIND       PRES   REMARKS
SPOKANE GEIGER SNOW      31  29  92 SW3       29.61R VSB 1/2          
SPOKANE FELTS  SNOW      33  31  92 SW3       29.62R VSB 1/2          
FAIRCHILD AFB  LGT SNOW  30  30 100 CALM      29.59R VSB 3/4          
COEURDALENE,ID SNOW      33  31  92 W5        29.60R VSB 1/2          
DEER PARK      LGT SNOW  32  31  96 S3        29.60S VSB 3/4          
$$

WAZ029>033-152200-
SOUTHEAST WASHINGTON
  
CITY           SKY/WX    TMP DP  RH WIND       PRES   REMARKS
PULLMAN        CLOUDY    32  31  96 W7        29.63R                  
LEWISTON, ID   CLOUDY    40  35  83 CALM      29.65R                  
WALLA WALLA    PTSUNNY   35  29  78 CALM      29.67R                  
PENDLETON, OR  PTSUNNY   34  30  85 NW5       29.65R                  
$$